FLOCK 3K-3 (43892 NORAD) Tracking and Keplerian Element Data

This shows tracking and keplerian element data for the satellite.

Feedback or suggestion? Click here.




ElementValue
Catalog43892
NameFLOCK 3K-3
Epoch Orbit315
Epoch Day16.77394149
Epoch Year2019
RAAN286.1059
Inclination97.3
Eccentricity0.0024637
Argument of Perigee172.2774
Mean Anonmoly187.8848
Mean Motion15.23342033
Decay Rate9.13E-06
L11 43892U 18111S 19016.77394149 .00000913 00000-0 41097-4 0 9997
L22 43892 97.3000 286.1059 0024637 172.2774 187.8848 15.23342033 3159

Live tracking and technical data element details for FLOCK 3K-3 (NORAD 43892). FLOCK 3K-3 can be tracked NOW for your location showing map with azimuth and elevation plus other details from your city location.

Track the satellite on the map from your city or location and see movement details for azimuth, elevation, latitude, longitude, range, height, and movement on the map or in text.







IsCatalogInMostPopularTable: catalog: 43892, numindb: 15
Update: records affected: 1



GetName: 43892 FLOCK 3K-3

Hit Count: updated at: Thu, 17 Jan 2019 15:38:50 GMT